Lapse_Rate
5.6 5.6 5.6 5.7 5.8 5.7 5.8 5.9 5.8 6.6 6.6 6.3 5.8 6.1 5.9 5.7 5.4 4.8 4.9 5.3 5.6 5.8 6.0 6.2 6.1 6.1 6.2 6.0 5.8 5.7 5.5 5.4 5.6 6.3 6.8 6.8 6.5 6.3 6.0 5.7 5.4 5.0 4.9 4.8
5.7 5.7 5.5 5.6 5.6 5.7 5.7 5.6 6.0 6.1 6.9 6.0 6.0 6.0 5.9 5.4 5.0 5.0 5.2 5.5 5.6 5.9 5.9 6.1 6.1 6.3 6.1 6.0 5.7 5.6 5.6 5.6 5.6 6.0 6.7 6.9 6.6 6.3 6.1 5.8 5.4 5.3 5.1 4.9
5.7 5.8 5.6 5.8 6.6 6.3 6.0 6.6 6.8 6.3 6.5 6.2 6.2 5.7 5.5 5.1 5.0 5.3 5.7 5.3 5.7 5.8 5.9 6.1 6.2 6.2 6.1 5.9 5.7 5.5 5.8 5.7 5.7 5.9 6.5 6.9 6.8 6.4 6.2 5.9 5.6 5.4 5.2 5.0
5.6 5.7 3.8 6.8 6.8 6.8 6.7 6.7 6.5 6.5 6.5 6.0 5.8 5.5 5.3 5.3 5.6 5.8 5.5 5.5 5.7 5.8 6.0 6.0 6.1 6.0 6.2 6.0 5.8 5.6 5.8 5.9 5.7 5.7 6.2 6.8 6.8 6.6 6.3 6.0 5.6 5.5 5.3 5.1
5.7 5.5 6.3 6.9 6.8 6.9 7.0 7.4 7.0 6.5 6.1 5.9 5.7 5.3 5.5 5.7 5.9 5.6 5.4 5.7 5.5 5.7 5.8 5.9 5.9 5.9 6.0 6.0 5.9 5.7 5.8 6.0 5.6 5.8 6.0 6.4 6.8 6.8 6.5 6.2 5.8 5.4 5.3 5.3
5.0 5.2 5.0 6.6 6.6 6.8 7.0 7.1 7.2 6.9 6.3 6.0 5.8 5.6 5.7 5.9 5.8 5.7 5.6 5.7 5.8 5.9 5.8 5.7 5.7 5.8 6.0 5.9 5.8 5.8 5.8 6.0 5.7 5.8 5.8 6.0 6.6 6.8 6.6 6.2 5.9 5.5 5.2 5.2
4.8 5.0 6.4 6.6 6.7 7.0 6.8 7.1 7.0 6.9 6.4 6.2 6.1 6.1 6.0 6.0 5.8 5.7 5.6 5.7 5.6 5.6 5.6 5.6 5.5 5.8 5.9 5.8 5.9 5.8 5.8 5.9 5.8 5.7 5.6 5.8 6.1 6.7 6.8 6.5 6.1 5.8 5.4 5.1
4.5 4.6 6.1 7.0 7.0 6.7 7.2 7.1 7.0 6.7 6.6 6.4 6.3 6.3 6.3 6.1 5.8 5.6 5.5 5.6 5.5 5.4 5.5 5.4 5.5 5.7 5.7 5.8 5.8 5.8 5.8 5.8 5.9 5.7 5.6 5.6 5.8 6.4 6.9 6.8 6.5 6.2 5.9 5.5
6.4 6.9 7.0 7.2 6.9 7.1 7.2 7.1 7.1 6.9 6.8 6.7 6.2 6.2 6.2 6.4 6.2 5.7 5.5 5.4 5.2 5.1 5.1 5.2 5.4 5.6 5.7 5.7 5.7 5.8 5.9 5.8 5.9 5.8 5.6 5.5 5.8 6.1 6.8 6.9 6.8 6.5 6.2 6.0
6.3 7.2 7.0 7.1 7.2 7.1 6.9 7.0 7.2 7.0 6.6 6.6 6.5 6.3 6.3 6.0 5.7 5.3 5.2 5.1 5.0 4.9 5.0 5.1 5.4 5.6 5.6 5.7 5.7 5.8 5.9 6.0 5.9 5.9 5.8 5.5 5.5 5.8 6.4 7.1 7.0 6.7 6.5 6.3
6.9 7.2 7.2 7.4 7.3 7.1 7.3 7.2 7.0 7.0 6.9 6.9 6.6 6.3 6.1 5.9 5.8 5.2 5.1 5.0 5.0 4.9 4.9 5.0 5.3 5.5 5.6 5.6 5.6 5.8 5.8 5.9 5.8 5.9 5.8 5.7 5.5 5.6 6.0 6.6 7.0 6.7 6.5 6.3
7.6 7.2 7.2 7.1 7.3 7.3 7.3 7.2 7.3 7.0 6.8 6.8 6.4 6.1 6.0 5.9 5.6 5.1 5.1 5.0 4.9 4.7 4.7 5.0 5.2 5.4 5.5 5.6 5.6 5.7 5.9 5.9 5.7 5.8 5.8 5.8 5.6 5.4 5.5 6.1 6.7 6.7 6.4 6.3
7.3 6.6 7.2 7.2 7.5 7.5 7.4 7.2 7.2 7.1 7.0 6.5 6.3 6.2 5.9 5.8 5.3 4.8 4.9 4.8 4.7 4.6 4.8 5.0 5.3 5.3 5.4 5.4 5.6 5.7 5.8 5.9 5.8 5.8 5.7 5.6 5.8 5.7 5.6 5.8 6.3 6.7 6.6 6.3
7.0 6.1 6.4 7.1 7.4 7.5 7.3 7.4 7.2 7.1 6.8 6.6 6.4 6.1 6.0 5.6 5.2 5.0 4.8 4.8 4.8 4.7 4.8 5.0 5.1 5.3 5.4 5.5 5.5 5.6 5.7 5.7 5.9 6.0 5.7 5.7 5.7 5.5 5.6 5.9 6.6 6.8 6.6 6.6
6.9 6.9 6.6 6.5 7.1 7.5 7.5 7.3 7.4 7.1 6.8 6.5 6.3 6.2 6.0 5.4 5.0 5.0 4.7 4.6 4.7 4.7 4.6 4.7 5.0 5.2 5.3 5.5 5.5 5.5 5.7 5.7 5.8 5.9 5.5 5.7 5.6 5.5 5.4 5.7 6.3 6.8 6.8 6.5
6.7 6.6 6.6 6.8 7.4 7.4 7.5 7.5 7.2 7.0 6.7 6.4 6.4 6.3 5.8 5.3 4.8 4.9 4.8 4.8 4.9 4.9 5.0 5.1 5.1 5.2 5.3 5.3 5.4 5.5 5.4 5.8 5.7 5.7 5.6 5.5 5.6 5.4 5.4 5.5 5.9 6.6 6.9 6.9
6.6 6.6 6.7 7.1 7.1 7.2 7.4 7.4 7.2 6.8 6.7 6.6 6.3 6.1 5.5 4.9 4.9 4.9 4.9 4.7 4.8 4.9 4.9 5.0 4.9 4.9 5.0 5.3 5.3 5.4 5.7 5.8 5.6 5.5 5.5 5.5 5.5 5.4 5.4 5.5 5.7 6.2 6.7 6.7
6.8 6.9 6.9 7.0 7.2 7.2 7.2 7.1 6.9 6.6 6.5 6.2 6.1 5.8 5.2 4.8 4.9 4.8 4.8 4.9 4.7 4.8 4.9 5.0 5.0 5.0 5.0 5.2 5.3 5.5 5.5 5.5 5.6 5.6 5.5 5.4 5.5 5.5 5.5 5.5 5.6 5.9 6.4 6.6
6.8 6.8 6.8 6.9 7.1 7.1 6.9 6.7 6.4 6.2 6.2 6.1 5.9 5.3 4.9 5.0 4.7 4.7 4.6 4.8 5.0 4.9 4.7 4.7 4.7 4.8 4.9 5.1 5.2 5.3 5.3 5.5 5.5 5.6 5.4 5.3 5.4 5.6 5.6 5.6 5.6 5.7 6.3 6.6
7.0 7.2 6.8 6.8 6.9 7.2 6.8 6.4 6.2 6.0 5.8 5.7 5.3 4.9 4.9 4.9 4.9 4.8 4.8 4.9 5.0 5.0 4.7 4.7 4.8 5.0 4.9 5.1 5.2 5.4 5.3 5.4 5.6 5.5 5.4 5.4 5.4 5.6 5.7 5.7 5.6 5.7 6.0 6.6
7.3 7.4 7.0 7.1 7.0 7.1 6.8 6.5 6.1 5.8 5.5 5.1 4.9 5.0 5.1 4.9 4.9 5.0 5.0 5.1 5.0 4.7 4.8 4.6 4.5 4.6 4.8 4.9 5.0 5.2 5.3 5.4 5.4 5.5 5.5 5.4 5.4 5.5 5.7 5.7 5.7 5.8 5.9 6.2
7.1 6.9 7.0 7.2 6.8 6.7 6.6 6.4 6.0 5.6 5.6 5.6 5.5 5.3 5.1 5.1 5.1 5.1 5.2 5.3 5.0 4.9 4.7 4.5 4.4 4.5 4.5 4.6 4.7 5.0 5.1 5.3 5.3 5.4 5.4 5.4 5.4 5.5 5.7 5.7 5.8 5.9 5.9 6.1
7.3 6.9 6.8 6.8 6.6 6.5 6.3 6.2 6.0 5.8 5.8 5.7 5.6 5.6 5.5 5.4 5.4 5.3 5.2 5.1 5.1 5.0 4.8 4.6 4.5 4.4 4.4 4.6 4.8 4.9 5.0 5.2 5.3 5.4 5.3 5.4 5.4 5.5 5.6 5.8 5.8 5.8 6.0 6.0
7.3 7.1 6.9 6.6 6.5 6.5 6.1 5.9 5.8 5.7 5.8 5.9 5.8 5.6 5.5 5.5 5.4 5.4 5.2 4.9 4.8 4.8 4.6 4.6 4.6 4.5 4.6 4.6 4.7 4.9 4.9 5.1 5.3 5.3 5.4 5.4 5.4 5.5 5.6 5.8 5.8 5.9 6.1 6.1
7.1 7.0 6.9 6.9 6.7 6.3 6.0 5.7 5.7 5.8 5.7 5.7 5.6 5.5 5.4 5.4 5.4 5.4 5.2 5.1 5.0 4.9 4.7 4.7 4.6 4.5 4.6 4.6 4.6 4.9 5.0 5.0 5.3 5.4 5.4 5.4 5.4 5.4 5.5 5.8 5.8 5.9 6.0 6.1
7.0 6.8 6.8 6.6 6.3 6.1 5.8 5.7 5.5 5.4 5.6 5.8 5.6 5.4 5.5 5.5 5.3 5.1 5.0 4.9 4.9 4.7 4.6 4.6 4.5 4.5 4.6 4.7 4.7 4.8 5.1 5.0 5.2 5.4 5.4 5.4 5.4 5.4 5.5 5.6 5.7 5.9 6.0 6.1
6.6 6.4 6.7 6.7 6.3 6.3 5.9 5.5 5.5 5.5 5.4 5.2 5.4 5.3 5.2 5.3 5.3 5.1 4.9 4.9 4.9 4.7 4.5 4.5 4.4 4.6 4.7 4.7 4.8 4.8 5.1 5.1 5.2 5.4 5.4 5.4 5.3 5.4 5.4 5.5 5.7 5.9 6.0 6.2
Wind_Speed
4 1 6 7 7 12 7 6 6 5 5 5 6 8 9 11 11 8 5 7 6 6 6 6 6 6 6 7 5 5 5 6 6 6 7 9 9 11 10 11 9 10 11 10
2 7 6 6 12 16 15 8 8 6 15 8 8 9 9 10 7 6 7 7 7 7 6 6 6 5 6 7 5 5 6 5 6 7 9 9 13 12 11 12 11 10 9 10
2 4 5 7 10 13 11 8 13 9 10 5 5 8 8 6 7 7 7 7 6 6 5 5 5 5 7 6 5 6 6 5 5 6 8 10 11 11 11 12 11 11 10 11
3 4 1 8 6 8 14 12 11 5 8 10 9 10 4 7 8 7 6 7 6 5 4 5 4 6 6 6 6 6 7 5 5 7 7 9 12 11 11 10 10 11 12 13
4 3 6 6 7 6 6 6 9 12 10 11 11 7 5 8 8 7 7 6 5 4 4 5 6 5 6 6 6 6 8 6 6 7 7 8 11 11 9 10 10 11 12 14
1 3 6 6 6 8 7 5 6 5 6 9 7 3 3 7 8 6 7 7 5 5 5 7 4 6 6 6 6 6 6 7 6 6 6 9 10 10 9 9 10 9 11 11
1 1 7 6 8 8 5 6 4 5 6 7 4 5 7 9 7 5 7 7 6 7 6 5 6 6 6 6 6 6 7 7 6 5 6 7 9 8 8 9 9 9 11 11
3 2 8 6 5 7 7 3 6 6 6 8 12 10 9 9 8 7 7 6 7 6 5 5 6 6 5 6 5 6 8 6 5 5 6 7 9 7 7 8 6 8 10 10
8 6 7 8 6 7 5 6 5 6 6 8 8 8 8 7 8 6 7 6 6 5 6 5 5 5 5 4 5 6 7 6 6 8 8 7 9 6 6 5 7 7 8 9
4 7 8 8 5 8 7 5 6 6 7 8 8 8 8 7 7 6 6 6 5 6 6 4 5 5 5 6 5 5 7 8 8 8 7 7 7 6 6 6 6 7 7 8
5 6 2 9 10 10 9 8 7 8 8 9 9 8 8 8 8 7 6 6 5 5 5 5 5 6 6 6 6 7 7 8 7 5 5 5 6 7 7 7 8 6 6 8
6 8 7 6 9 10 10 10 10 9 8 8 8 8 7 8 7 6 7 6 6 6 6 5 6 6 7 8 8 6 5 5 4 3 4 4 4 3 10 14 19 14 13 12
6 5 9 8 8 10 10 9 9 10 9 9 7 8 9 10 7 9 7 7 6 6 6 6 5 6 6 6 6 4 4 4 3 4 4 3 3 3 5 6 12 14 15 21
11 7 4 7 6 8 7 9 10 10 9 8 9 10 9 9 9 8 7 7 7 7 6 5 5 5 4 5 5 3 3 4 4 4 3 4 3 3 2 3 5 6 10 15
11 12 9 8 8 9 7 5 8 8 8 8 10 13 13 12 8 8 8 7 7 7 6 4 5 4 4 3 3 2 3 2 3 4 4 4 2 2 2 3 3 3 4 7
6 8 9 10 10 9 9 7 7 8 8 7 12 12 11 10 9 8 7 7 6 5 6 5 5 6 5 3 1 1 3 6 4 3 2 3 4 4 4 3 4 3 5 6
7 7 7 7 9 9 9 8 8 7 9 13 13 13 12 11 9 8 7 7 7 7 6 6 6 6 6 4 3 3 2 3 4 3 3 3 3 4 3 3 4 4 4 4
9 10 10 9 9 8 5 8 8 9 10 13 14 13 12 11 9 8 7 7 6 4 6 5 6 6 5 4 4 2 0 1 2 2 2 3 3 3 3 3 4 4 3 6
7 9 9 8 9 9 8 7 8 8 10 12 14 12 11 9 8 7 7 6 6 6 5 6 8 7 6 7 4 2 2 3 2 2 2 3 3 3 3 3 3 4 4 5
7 8 8 8 9 8 8 7 9 9 8 10 11 11 9 7 7 8 6 7 7 5 5 8 8 6 5 8 7 3 4 4 3 2 2 2 2 2 2 4 4 4 4 4
9 9 9 9 8 8 9 9 11 10 7 11 13 11 12 8 7 7 6 5 6 7 8 10 6 4 4 6 5 4 4 4 3 3 2 2 2 3 3 3 3 3 3 3
7 7 9 10 10 8 8 8 11 10 9 7 7 8 9 8 7 7 5 5 3 8 7 6 5 7 5 8 4 4 4 4 3 2 2 2 2 1 2 2 3 2 2 3
7 9 10 10 11 11 8 9 9 12 11 9 10 10 10 8 7 6 5 7 5 5 6 5 6 10 10 4 5 4 4 4 3 3 3 2 2 2 1 1 1 2 3 3
10 11 9 10 11 11 9 5 7 7 9 9 9 8 8 5 3 5 4 6 9 10 5 6 8 10 9 4 5 4 4 3 4 3 3 3 2 2 2 2 1 1 2 2
10 10 10 11 10 6 8 8 6 6 6 6 6 6 6 4 4 4 4 4 8 8 5 7 9 9 3 5 5 4 3 3 3 4 3 3 2 2 2 2 1 1 1 2
10 7 6 9 8 6 6 7 5 4 5 5 4 5 5 4 4 3 4 6 6 8 6 5 4 4 4 5 5 4 3 3 3 3 4 3 3 2 3 3 1 1 1 2
6 7 5 5 5 6 6 6 5 6 6 5 5 5 5 4 5 5 6 5 5 6 6 6 4 4 3 2 3 4 6 7 10 8 10 7 6 5 6 6 4 2 2 4
Wind_Direction
284 296 140 174 176 177 175 197 166 245 220 237 226 225 237 244 256 262 90 75 67 63 51 43 37 22 8 340 27 3 8 359 352 17 32 18 4 354 346 344 340 332 337 340
259 259 213 209 204 183 201 209 242 254 280 213 240 220 246 247 252 96 87 76 68 65 55 42 39 18 1 337 20 8 353 1 4 30 28 12 2 351 349 342 344 342 347 350
241 128 52 326 222 210 194 184 199 211 222 197 228 240 235 234 109 98 87 77 75 74 61 56 44 28 351 352 16 2 343 356 38 38 25 12 1 351 351 346 344 348 351 356
195 82 15 238 175 195 217 228 189 172 172 180 212 234 197 108 115 98 88 84 76 80 70 67 48 25 351 19 13 353 344 344 53 40 28 10 360 352 351 351 351 352 353 357
145 206 280 287 198 180 176 273 203 205 199 194 218 123 64 114 108 112 109 119 102 102 106 83 54 26 13 24 9 357 345 355 56 40 28 13 3 353 351 356 358 357 359 356
112 185 215 231 141 105 79 312 255 203 206 171 141 123 213 125 110 105 117 118 109 103 97 78 54 36 29 26 5 349 358 1 63 39 27 19 357 353 351 357 1 358 355 352
192 253 288 251 134 108 93 227 40 138 143 124 126 165 166 136 130 145 121 127 106 103 103 107 74 48 31 24 5 2 355 360 65 33 32 10 2 358 359 2 2 358 356 356
159 158 273 205 94 152 210 164 115 101 120 107 129 138 143 139 139 122 118 123 102 101 102 99 80 63 34 25 15 17 342 12 67 39 29 14 13 353 3 360 352 355 360 0
179 210 232 179 164 196 142 148 141 141 146 131 137 152 152 142 126 128 120 107 96 88 100 92 81 79 56 26 38 11 346 41 33 42 19 14 3 360 4 348 351 353 3 1
130 237 224 208 206 176 191 175 161 143 147 140 157 148 145 140 135 115 114 107 94 86 84 93 75 72 80 48 27 25 7 34 25 35 16 4 358 360 359 359 356 356 3 4
252 257 200 212 198 175 180 184 159 165 155 160 151 152 149 140 136 125 117 116 114 112 97 87 75 77 63 46 38 34 34 24 28 24 355 3 351 349 355 359 360 7 18 5
217 210 173 209 201 184 173 178 174 157 155 155 155 161 139 140 136 131 125 116 107 103 97 83 68 78 64 52 59 48 28 16 3 338 347 340 338 326 349 357 357 27 39 26
209 207 183 196 151 175 174 182 179 166 161 166 165 139 130 136 126 124 122 132 128 121 109 89 72 85 70 77 69 46 12 344 344 342 328 318 323 336 352 348 355 352 31 23
196 186 159 155 171 159 164 185 172 166 170 163 152 132 126 129 129 131 138 130 126 119 116 106 96 99 91 92 92 49 337 327 332 315 300 293 289 304 327 334 347 356 10 13
189 188 170 179 159 168 173 166 168 165 156 138 136 134 130 136 135 134 132 125 129 138 139 139 140 126 105 92 125 284 322 297 310 300 304 313 328 308 319 341 349 331 353 351
222 180 167 160 178 166 161 175 158 170 146 134 135 137 135 133 124 130 133 144 139 156 178 160 168 164 147 141 228 294 269 279 299 312 342 14 360 8 358 5 358 356 353 351
188 207 165 172 171 177 175 172 174 165 143 140 139 131 122 126 123 133 141 140 141 159 168 170 183 172 172 189 210 246 248 267 358 37 41 5 11 10 358 15 359 355 346 357
198 187 186 174 173 170 165 172 159 148 149 144 132 130 133 140 155 165 165 157 145 154 181 177 163 165 188 204 200 196 353 105 56 61 46 21 14 8 5 14 7 5 342 6
184 153 168 167 160 158 155 161 151 141 134 131 136 149 151 149 156 165 160 146 159 181 227 187 171 173 179 178 160 129 126 95 65 46 59 37 28 4 8 13 6 6 359 6
186 158 156 156 145 143 143 130 120 117 130 126 117 126 138 157 150 157 158 183 192 198 181 161 167 189 187 180 164 129 137 119 112 85 61 43 32 9 6 30 18 9 13 7
174 153 153 143 134 127 127 131 123 131 135 136 142 159 164 158 161 161 163 197 222 202 167 166 171 185 142 163 157 146 134 113 110 108 101 87 34 17 20 28 13 12 9 4
146 129 130 128 122 112 128 127 122 126 132 124 119 134 142 162 170 195 207 191 221 193 162 167 168 148 156 145 131 124 120 118 117 111 102 98 72 49 8 35 19 356 4 352
114 127 128 126 128 130 114 122 138 145 151 156 160 166 172 176 174 171 214 221 196 171 157 167 158 152 153 134 136 131 131 133 145 145 147 146 153 142 101 80 27 41 2 349
125 132 129 124 122 122 128 163 156 163 164 172 176 172 160 160 206 212 208 174 171 173 170 156 156 152 147 140 139 142 149 158 155 152 151 152 148 126 94 115 53 2 356 11
130 135 134 137 140 146 136 155 147 156 161 162 162 175 188 192 168 201 178 163 154 149 140 152 153 151 136 148 149 156 162 164 165 149 151 161 172 159 160 141 132 312 27 21
138 146 153 149 154 148 151 156 162 164 154 168 179 178 189 191 187 151 138 144 145 138 141 151 156 149 150 155 160 166 167 160 160 166 171 173 177 171 171 165 164 132 75 335
128 136 137 133 148 146 150 155 154 176 180 182 178 176 170 171 153 136 132 130 133 151 160 163 153 151 153 167 179 181 188 183 186 180 183 188 182 188 178 173 171 183 271 293